Location: Unspecified
(41.1637°N, 24.2901°E)
Time: 11:58:56
(UTC+01:00)

ISS - Pass Details

Date: 29 November 2021
Orbit: 417 x 423 km, 51.6° (Epoch: 29 November)

Event Time Altitude Azimuth Distance (km) Brightness Sun altitude
Rises 17:06:17 0° 300° (WNW) 2,379 0.7 -13.1°
Reaches altitude 10° 17:09:11 10° 327° (NNW) 1,513 -0.7 -13.6°
Maximum altitude 17:11:04 14° 1° (N) 1,292 -1.5 -14.0°
Enters shadow 17:11:56 13° 18° (NNE) 1,341 -1.5 -14.1°
